Location: Newark
(34.0111°N, 88.4892°W)
Time: 09:04:33
(UTC+00:00)

Max Valier Satellite - Visible Passes

Search period start: 06 June 2020 00:00
Search period end: 16 June 2020 00:00
Orbit: 488 x 507 km, 97.3° (Epoch: 05 June)

Date Brightness Start Highest point End Pass type
(mag) Time Alt. Az. Time Alt. Az. Time Alt. Az.
06 Jun ? 02:37:58 35° SSE 02:39:23 81° ENE 02:43:00 10° N visible
07 Jun ? 02:17:28 24° SE 02:19:10 40° ENE 02:22:35 10° N visible
08 Jun ? 01:56:58 14° ESE 01:59:00 21° ENE 02:01:49 10° NNE visible
08 Jun ? 03:31:36 15° WSW 03:32:38 17° W 03:35:05 10° NW visible
09 Jun ? 01:37:29 10° E 01:38:55 12° ENE 01:40:21 10° NE visible
09 Jun ? 03:11:05 25° SW 03:12:17 32° W 03:15:33 10° NNW visible
10 Jun ? 02:50:35 34° S 02:51:59 64° W 02:55:34 10° NNW visible
11 Jun ? 02:30:05 29° SSE 02:31:43 62° ENE 02:35:18 10° N visible
12 Jun ? 02:09:34 18° SE 02:11:32 31° ENE 02:14:46 10° N visible
12 Jun ? 03:44:12 10° WSW 03:45:19 11° W 03:46:35 10° WNW visible
13 Jun ? 01:49:04 10° ESE 01:51:23 17° ENE 01:53:49 10° NNE visible
13 Jun ? 03:23:42 18° SW 03:24:55 21° W 03:27:45 10° NW visible
14 Jun ? 03:03:11 28° SSW 03:04:35 40° W 03:08:00 10° NNW visible
15 Jun ? 02:42:41 31° S 02:44:17 84° WSW 02:47:55 10° NNW visible
